Regional Weather Roundup
Issued by NWS

Home | Current Version | Previous Version | Text Only | Print | Product List | Glossary On
Versions: 1 2 3 4 5 6 7 8 9 10 11 12 13 14 15 16 17 18 19 20 21 22 23 24 25 26 27 28 29 30 31 32 33 34 35 36 37 38 39 40 41 42 43 44 45 46 47 48 49 50
000
ASUS42 KFFC 301103
RWRGA
WEATHER ROUNDUP FOR GEORGIA
NATIONAL WEATHER SERVICE PEACHTREE CITY GA
700 AM EDT SUN AUG 30 2015

NOTE: "FAIR" INDICATES FEW OR NO CLOUDS BELOW 12,000 FEET WITH NO
SIGNIFICANT WEATHER AND/OR OBSTRUCTIONS TO VISIBILITY.

* = USE WITH CAUTION. THE STATIONS MARKED WITH AN ASTERISK MAY NOT
REPORT WEATHER SUCH AS PRECIPITATION, FOG, OR THUNDER AND ARE NOT
QUALITY CONTROLLED BY NWS.

THE REMARK "TC" DENOTES TEMPERATURE READING IN DEGREES CELSIUS.

GAZ001>058-301200-
NORTH GEORGIA

CITY           SKY/WX    TMP DP  RH WIND       PRES   REMARKS
ATLANTA        CLOUDY    72  64  76 NE7       30.10S
ATHENS         CLOUDY    70  64  81 NE5       30.12S
CHAMBLEE       CLOUDY    71  64  78 VRB3      30.11S
PEACHTREE CITY HVY RAIN  68  68 100 NW5       30.10S VSB 3/4
ROME           CLOUDY    69  67  93 N3        30.11R
WEST ATLANTA   CLOUDY    71  65  81 NE3       30.11R
GAINESVILLE    CLOUDY    70  62  76 NE5       30.16S
CARTERSVILLE   CLOUDY    69  68  96 CALM      30.12R


CITY           SKY/WX    TMP DP  RH WIND       PRES   REMARKS
DALTON*        CLOUDY    68  68 100 CALM      30.12S
LAWRENCEVILLE* CLEAR     70  59  68 NE7       30.13
MARIETTA       CLOUDY    71  66  85 VRB3      30.11S
KENNESAW*      MOCLDY    70  64  83 E7        30.13
BLAIRSVILLE*     N/A     64  56  76 CALM      30.18S
$$

GAZ059>098-102>109-301200-
CENTRAL GEORGIA

CITY           SKY/WX    TMP DP  RH WIND       PRES   REMARKS
AUGUSTA-BUSH   CLOUDY    72  66  81 CALM      30.10R
AUGUSTA-DANIEL CLOUDY    82  61  48 E6        30.11R
COLUMBUS       CLOUDY    72  70  93 CALM      30.05R
MACON          CLOUDY    71  68  90 E3        30.07R
ROBINS AFB     LGT RAIN  72  68  88 SE6       30.07R


CITY           SKY/WX    TMP DP  RH WIND       PRES   REMARKS
LAGRANGE*      CLOUDY    73  73 100 CALM      30.07S
SYLVANIA*      RAIN      72  72 100 E3        30.09S
MILLEDGEVILLE* LGT RAIN  72  63  73 E5        30.09R
$$

GAZ099>101-110>166-301200-
SOUTH GEORGIA

CITY           SKY/WX    TMP DP  RH WIND       PRES   REMARKS
SAVANNAH       CLOUDY    73  70  90 NE3       30.07S
VALDOSTA       CLOUDY    73  73 100 E3        30.06R
ALMA           CLOUDY    73  72  96 SE3       30.06R
ST SIMONS      CLOUDY    76  74  93 CALM      30.04F
FT STEWART     CLOUDY    73  71  94 CALM      30.04R
ALBANY         CLOUDY    72  71  97 NW3       30.06S
HUNTER AFB     CLOUDY    73  73 100 E3        30.05S
MOODY AFB      CLOUDY    72  70  96 E3        30.05R
BRUNSWICK      CLOUDY    72  72 100 CALM      30.06S


CITY           SKY/WX    TMP DP  RH WIND       PRES   REMARKS
BAINBRIDGE*    CLOUDY    72  70  94 CALM      30.04S
MOULTRIE*      CLOUDY    72  70  94 CALM      30.04S
VIDALIA*       CLOUDY    72  72 100 CALM      30.07R
WAYCROSS*      CLOUDY    76  76  99 CALM      30.06R
DOUGLAS*       CLOUDY    75  73  94 CALM      30.08R
$$



USA.gov is the U.S. government's official web portal to all federal, state and local government web resources and services.